Wetbulb
42.48 43.75 43.19 43.32 44.12 44.05 43.46 43.46 43.20 43.05 42.91 42.28 41.45 41.13 40.73 41.66 42.67 43.80 44.11 43.69 43.55 43.73 43.94 43.36 43.76 43.59 42.91 42.68 43.56 43.42 42.22 41.63 42.52 40.76 41.87 44.58 47.13 47.40 48.44 49.20 50.00 51.15 52.77
41.01 42.35 42.28 42.50 43.60 42.82 43.02 43.03 43.09 43.20 42.80 42.89 42.22 41.81 41.67 42.15 42.82 43.75 42.08 43.32 42.83 43.24 42.33 42.32 42.94 43.69 43.70 42.88 42.88 42.82 42.02 41.73 42.56 39.10 39.11 37.67 42.92 46.59 47.44 48.39 48.25 48.99 51.32
39.51 40.91 40.90 41.43 43.04 42.01 42.19 42.33 42.85 43.11 43.29 42.95 42.69 42.22 42.27 41.39 40.47 39.97 40.19 42.37 42.60 41.80 42.19 42.06 41.95 42.20 43.04 42.48 43.16 42.91 41.91 40.20 41.75 42.04 39.07 37.11 37.15 42.56 46.98 46.95 47.81 47.96 49.12
40.36 40.98 40.35 40.68 41.92 41.87 42.59 42.77 43.07 42.82 42.64 43.11 41.56 39.42 37.36 35.99 37.90 38.36 39.60 41.40 41.58 41.19 42.57 41.84 41.71 41.84 42.71 42.94 43.07 43.77 42.37 42.17 39.56 41.40 42.22 41.18 40.59 38.18 39.55 46.21 46.97 47.44 47.59
40.14 40.01 39.78 40.92 42.17 42.18 41.99 42.68 42.89 42.65 42.84 42.35 42.23 39.61 37.76 38.18 38.70 38.68 39.18 39.64 40.79 41.56 41.87 42.32 41.51 41.10 42.17 43.77 43.07 42.27 43.15 43.21 41.38 40.31 40.34 40.14 40.47 41.31 39.27 38.39 42.53 46.29 47.29
39.98 40.44 40.56 41.40 41.23 42.11 42.13 42.38 42.15 41.96 42.76 42.68 42.59 41.44 39.56 38.56 37.84 37.60 37.50 38.24 40.47 41.33 41.36 41.59 41.91 41.41 41.28 42.64 43.66 43.37 43.52 42.97 42.05 42.02 41.22 40.13 38.51 38.48 39.06 38.59 40.47 41.71 45.70
39.49 39.45 39.02 39.06 39.76 40.64 41.30 41.68 41.69 41.11 42.37 42.37 42.31 41.84 41.20 41.17 39.73 37.97 37.34 36.87 39.07 40.43 40.89 41.25 40.87 40.44 40.93 41.77 43.45 43.87 42.94 42.94 42.16 41.80 41.15 41.69 41.51 41.60 41.37 40.89 40.28 40.46 44.05
39.27 39.11 39.14 39.26 39.76 40.11 40.89 41.21 41.07 40.93 41.99 42.13 42.09 42.35 42.48 42.01 41.26 40.60 38.45 38.05 38.75 41.17 41.27 41.05 40.62 40.14 40.24 41.35 43.67 44.10 43.81 43.98 43.24 42.28 41.98 41.41 41.38 42.40 42.22 40.92 40.10 38.79 40.91
38.60 38.70 39.08 39.38 40.05 39.86 40.26 40.81 41.00 41.24 41.80 42.00 42.21 41.94 41.56 40.47 39.68 41.12 40.64 38.96 40.18 41.05 41.33 40.91 40.14 39.91 39.96 41.36 43.12 43.87 43.38 43.73 43.41 43.17 43.26 41.37 42.41 42.44 42.26 42.41 42.37 40.48 38.08
38.37 38.70 38.93 39.39 40.53 40.47 40.52 41.27 41.72 41.20 41.63 42.01 42.20 41.95 40.71 38.89 39.24 41.38 40.56 39.80 39.81 41.40 41.51 40.35 40.22 40.50 40.20 41.37 43.35 43.93 43.86 43.43 43.40 43.50 42.32 41.46 41.86 41.47 41.81 42.44 43.00 42.90 41.01
37.92 38.26 39.13 40.13 40.44 40.49 40.25 40.87 41.35 41.30 41.24 41.65 41.77 41.92 40.01 38.62 39.02 40.58 40.87 40.63 39.81 40.75 41.70 40.38 40.39 42.76 42.71 42.95 43.07 43.75 43.32 42.96 42.95 43.28 42.91 41.81 42.26 41.35 41.44 41.54 41.55 41.95 41.93
38.23 38.54 39.52 40.02 39.67 39.72 40.05 40.45 41.08 41.02 41.30 41.70 41.62 41.47 39.58 38.93 38.33 39.89 40.28 40.83 39.94 40.46 41.66 41.18 40.45 41.29 40.92 41.85 42.51 42.18 43.11 41.96 41.91 42.15 42.55 42.55 42.69 42.32 41.67 41.20 40.80 40.86 41.54
37.94 38.33 39.10 38.34 38.19 38.90 39.48 40.13 40.81 40.73 41.18 41.42 41.13 40.80 38.78 40.08 39.70 39.46 39.80 40.54 40.06 40.28 40.82 41.23 40.50 40.74 40.76 40.52 40.78 40.63 40.25 40.56 41.20 41.33 41.56 42.12 42.20 41.46 41.91 41.94 41.52 41.44 41.19
37.23 37.62 37.80 36.96 37.69 38.35 39.28 39.83 40.33 40.73 40.87 41.09 40.58 39.95 38.47 40.43 40.19 40.06 39.10 40.29 40.16 39.95 39.99 40.67 41.24 41.04 41.95 41.07 39.84 40.39 40.33 39.58 39.35 39.94 40.36 41.19 41.94 41.79 42.38 42.06 41.42 41.25 40.79
36.29 36.73 36.44 36.14 37.55 38.40 38.96 39.78 40.32 40.23 40.67 40.27 39.91 39.78 39.36 40.63 40.72 40.21 39.26 39.83 40.14 39.80 40.01 39.92 40.76 41.46 41.28 41.45 40.55 39.16 39.21 38.91 39.07 40.37 39.74 40.02 42.42 44.69 43.95 43.00 41.48 41.29 40.98
35.70 36.58 36.55 35.33 36.41 37.98 37.93 39.38 39.66 40.10 40.25 40.01 39.42 40.04 40.31 40.14 39.95 40.49 39.91 39.60 39.31 39.61 39.51 38.99 40.19 40.54 40.73 41.85 41.47 40.74 40.22 38.81 37.51 37.71 39.92 40.08 41.60 42.93 44.07 43.28 42.46 43.16 40.92
35.46 36.11 36.27 35.55 36.53 38.45 39.06 38.77 39.54 40.19 39.91 39.91 39.75 39.44 39.89 39.85 39.61 39.97 40.08 39.41 38.88 38.76 38.73 39.05 38.73 39.69 40.62 42.23 41.63 40.91 39.66 39.38 38.76 38.07 39.54 39.94 40.24 40.71 40.60 41.96 42.28 42.77 43.73
35.73 36.73 37.10 37.26 37.50 39.37 39.02 40.03 40.40 39.67 39.83 39.64 39.39 39.32 39.16 39.42 39.69 38.75 39.33 39.71 39.59 39.20 38.40 38.16 38.94 38.96 39.52 42.43 41.80 40.98 39.70 39.48 38.72 39.05 39.31 39.23 39.25 39.84 38.01 37.64 37.43 37.49 37.96
36.73 37.66 38.21 38.17 37.61 38.54 38.19 39.55 39.54 39.47 39.56 39.08 39.04 39.16 39.17 38.76 39.47 38.06 38.67 40.11 39.83 39.30 39.56 39.06 38.41 37.45 38.96 41.99 41.93 39.78 38.49 38.04 38.04 38.32 38.90 39.40 39.69 40.81 39.84 36.01 34.89 35.30 36.08
37.74 37.37 38.04 37.07 36.38 37.22 37.14 38.15 38.47 38.54 38.45 39.11 39.39 39.81 39.76 38.71 38.69 39.70 39.60 40.97 40.85 39.93 40.10 39.36 39.58 39.72 38.32 41.34 41.60 40.36 37.69 37.03 36.88 37.66 37.91 39.07 38.83 40.56 40.93 37.13 34.56 32.40 33.07
37.28 37.69 36.89 35.78 37.12 36.87 37.23 37.33 37.34 37.46 39.42 40.39 40.50 40.18 40.22 38.99 39.13 40.10 40.70 41.23 40.82 40.74 40.28 39.97 40.54 39.86 39.98 40.15 41.60 41.11 38.06 36.89 36.49 36.38 36.39 37.01 38.80 38.87 39.10 38.58 37.27 35.56 37.75
36.58 37.24 35.92 36.44 37.51 37.75 37.06 36.92 35.73 38.87 40.49 40.65 40.40 39.97 40.06 39.46 39.24 39.51 40.27 40.41 40.46 39.61 39.25 39.20 39.02 40.51 40.16 40.92 41.34 41.73 40.68 39.60 36.13 35.42 36.57 37.18 38.62 38.43 38.05 37.44 37.99 37.97 37.38
36.64 37.19 35.99 36.32 38.23 37.69 37.63 35.32 36.25 38.96 40.27 40.20 39.95 39.82 40.00 39.73 39.36 38.50 38.99 39.20 39.05 38.82 38.10 37.66 38.12 37.77 39.55 39.50 40.84 40.95 41.00 40.55 37.72 37.13 37.70 38.31 38.62 38.91 38.50 38.91 38.99 38.18 35.80
35.89 36.38 35.70 36.22 36.56 37.79 37.41 36.37 36.78 38.98 40.34 39.53 39.59 39.76 39.32 39.07 39.26 38.80 38.05 38.14 36.86 36.51 36.83 36.64 37.09 37.45 37.90 37.81 38.54 38.37 38.25 38.90 38.21 38.06 37.67 38.20 38.25 38.49 37.72 37.11 37.03 36.37 36.28
36.08 35.85 35.49 35.32 35.76 37.91 37.44 37.44 37.29 38.28 39.64 39.49 39.79 38.93 39.41 39.08 38.74 38.99 37.70 36.65 37.37 37.07 36.06 35.96 36.75 36.13 35.34 36.69 38.49 38.00 36.29 36.88 37.08 37.75 37.27 35.65 34.88 34.23 34.49 34.94 35.38 35.88 35.75
35.43 35.24 35.56 35.90 36.42 37.16 37.57 37.33 37.92 38.08 39.44 38.68 39.22 38.75 38.88 39.05 38.85 38.52 38.78 38.09 37.22 37.40 38.28 38.87 37.73 37.32 38.29 38.74 38.53 38.40 37.82 38.15 38.62 36.67 34.82 34.04 33.89 33.32 33.31 33.05 33.35 34.27 34.62
MSLP
1024.20 1024.41 1024.22 1024.12 1023.92 1023.66 1023.74 1023.48 1023.15 1023.00 1022.62 1022.18 1021.77 1021.48 1021.07 1020.57 1020.06 1019.35 1018.86 1018.36 1018.22 1017.59 1016.88 1016.33 1015.68 1015.12 1014.82 1014.48 1014.13 1013.85 1013.67 1013.53 1013.37 1013.08 1012.19 1010.99 1009.93 1009.28 1009.20 1009.38 1009.26 1009.16 1009.43
1024.10 1024.20 1024.34 1024.22 1023.96 1023.89 1023.87 1023.64 1023.29 1022.97 1022.69 1022.36 1022.19 1021.78 1021.21 1020.71 1020.20 1019.48 1019.41 1018.51 1018.10 1017.41 1016.99 1016.30 1015.55 1014.88 1014.20 1013.93 1013.72 1013.43 1013.12 1013.07 1012.93 1012.65 1012.12 1010.96 1009.60 1008.97 1008.92 1008.94 1009.13 1009.19 1009.11
1024.50 1024.45 1024.57 1024.45 1024.18 1024.12 1024.07 1023.79 1023.40 1023.05 1022.75 1022.58 1022.14 1021.83 1021.42 1021.14 1020.40 1019.98 1019.52 1018.60 1017.92 1017.20 1016.53 1016.21 1015.55 1014.85 1014.16 1013.56 1013.22 1013.03 1012.82 1012.57 1012.58 1012.37 1012.10 1011.04 1009.81 1008.74 1008.25 1008.46 1008.68 1008.80 1008.89
1024.66 1024.79 1024.83 1024.67 1024.43 1024.42 1024.33 1023.96 1023.51 1023.23 1023.02 1022.55 1022.22 1022.06 1021.74 1021.18 1020.65 1020.35 1019.64 1018.55 1017.84 1017.04 1016.21 1015.79 1015.33 1014.68 1013.91 1013.22 1012.78 1012.35 1012.53 1012.28 1012.25 1012.42 1012.04 1011.79 1011.37 1009.98 1008.40 1007.87 1008.05 1008.45 1008.69
1024.91 1024.94 1024.98 1025.06 1024.83 1024.69 1024.42 1024.03 1023.64 1023.38 1023.03 1022.68 1022.12 1021.93 1021.65 1021.10 1020.56 1020.26 1019.51 1018.77 1017.81 1017.02 1016.23 1015.47 1015.01 1014.48 1013.68 1012.85 1012.39 1012.23 1011.78 1011.74 1012.04 1012.23 1012.02 1011.78 1011.45 1010.85 1010.25 1009.00 1008.17 1008.09 1008.23
1025.09 1025.22 1025.30 1025.33 1025.13 1024.79 1024.46 1024.08 1023.70 1023.38 1022.94 1022.48 1021.91 1021.47 1021.08 1020.65 1020.25 1020.08 1019.60 1018.77 1017.62 1016.84 1016.14 1015.49 1014.86 1014.26 1013.54 1012.77 1012.14 1011.87 1011.61 1011.56 1011.83 1012.05 1012.00 1011.94 1011.63 1011.19 1010.72 1010.16 1009.30 1008.79 1008.27
1025.31 1025.44 1025.46 1025.50 1025.34 1024.78 1024.45 1024.00 1023.72 1023.30 1022.81 1022.32 1021.80 1021.35 1020.85 1020.30 1019.84 1019.70 1019.50 1018.72 1017.51 1016.59 1015.97 1015.42 1014.67 1014.07 1013.45 1012.74 1012.17 1011.61 1011.63 1011.60 1011.77 1011.86 1011.96 1012.14 1011.81 1011.62 1011.39 1010.99 1010.25 1009.48 1008.94
1025.35 1025.51 1025.61 1025.54 1025.16 1024.81 1024.46 1024.10 1023.73 1023.26 1022.75 1022.31 1021.80 1021.21 1020.70 1020.17 1019.68 1019.14 1019.09 1018.46 1017.52 1016.52 1015.78 1015.18 1014.46 1013.84 1013.27 1012.64 1012.00 1011.48 1011.37 1011.35 1011.58 1011.70 1011.79 1011.95 1011.85 1011.75 1011.46 1011.25 1010.90 1010.09 1009.41
1025.53 1025.52 1025.52 1025.47 1025.02 1024.83 1024.57 1024.17 1023.72 1023.25 1022.76 1022.33 1021.79 1021.22 1020.77 1020.71 1020.27 1019.05 1018.46 1018.11 1017.33 1016.37 1015.66 1014.93 1014.05 1013.39 1012.96 1012.49 1011.86 1011.41 1011.11 1011.07 1011.13 1011.28 1011.30 1011.67 1011.56 1011.86 1011.81 1011.52 1011.35 1010.63 1010.03
1025.56 1025.61 1025.58 1025.38 1025.02 1024.86 1024.64 1024.18 1023.70 1023.19 1022.77 1022.37 1021.83 1021.25 1021.17 1021.38 1020.51 1019.16 1018.29 1017.84 1017.27 1016.25 1015.60 1014.69 1013.63 1012.67 1012.48 1012.34 1011.79 1011.28 1011.03 1010.86 1010.93 1011.03 1011.21 1011.35 1011.56 1011.74 1011.83 1011.70 1011.33 1011.04 1010.65
1025.68 1025.63 1025.53 1025.33 1025.10 1024.96 1024.68 1024.14 1023.66 1023.24 1022.82 1022.38 1021.87 1021.32 1021.46 1021.31 1020.61 1019.12 1018.46 1017.80 1017.29 1016.39 1015.53 1015.01 1013.78 1012.58 1012.41 1012.11 1011.80 1011.33 1010.88 1010.85 1010.86 1010.85 1010.90 1011.17 1011.24 1011.49 1011.61 1011.67 1011.61 1011.32 1011.15
1025.68 1025.70 1025.58 1025.40 1025.29 1025.04 1024.72 1024.25 1023.77 1023.35 1022.99 1022.45 1021.86 1021.55 1021.79 1021.03 1020.42 1019.32 1018.66 1017.92 1017.19 1016.65 1015.91 1015.18 1014.48 1013.75 1013.35 1012.96 1012.46 1012.09 1011.49 1011.17 1010.96 1010.80 1010.70 1010.58 1010.86 1011.04 1011.29 1011.33 1011.37 1011.40 1011.36
1025.93 1025.95 1025.80 1025.94 1025.79 1025.37 1024.93 1024.47 1023.99 1023.59 1023.16 1022.54 1021.92 1021.75 1021.79 1020.68 1020.16 1019.71 1019.10 1018.13 1017.39 1016.74 1016.31 1015.71 1015.11 1014.52 1014.03 1013.68 1013.34 1012.97 1012.66 1012.31 1011.97 1011.65 1011.26 1010.79 1010.53 1010.62 1010.76 1010.92 1011.01 1011.08 1011.09
1026.09 1026.27 1026.28 1026.62 1026.20 1025.76 1025.20 1024.70 1024.20 1023.88 1023.37 1022.67 1022.11 1021.87 1021.94 1020.76 1020.26 1019.85 1019.62 1018.45 1017.69 1016.99 1016.75 1016.15 1015.61 1015.10 1014.48 1013.96 1013.72 1013.36 1012.99 1012.70 1012.48 1012.23 1011.85 1011.26 1010.69 1010.28 1010.24 1010.32 1010.48 1010.64 1010.85
1026.26 1026.54 1026.75 1027.01 1026.47 1025.89 1025.56 1025.02 1024.49 1024.11 1023.62 1022.88 1022.30 1022.04 1021.85 1021.06 1020.49 1019.89 1019.60 1018.84 1018.06 1017.47 1017.08 1016.75 1016.18 1015.57 1014.89 1014.37 1014.14 1013.98 1013.78 1013.37 1012.78 1012.14 1011.81 1011.49 1010.98 1010.32 1009.98 1009.91 1010.16 1010.14 1010.24
1026.55 1026.81 1027.01 1027.31 1026.93 1026.16 1025.90 1025.26 1024.74 1024.21 1023.90 1023.08 1022.56 1022.26 1021.81 1021.30 1020.82 1020.00 1019.47 1019.08 1018.65 1017.97 1017.44 1017.16 1016.60 1016.19 1015.41 1014.86 1014.41 1014.08 1013.78 1013.81 1013.40 1012.79 1012.05 1011.48 1011.15 1010.52 1009.93 1009.87 1009.97 1009.87 1009.99
1026.63 1026.85 1027.14 1027.32 1027.05 1026.32 1026.04 1025.52 1024.95 1024.58 1024.02 1023.32 1022.82 1022.41 1022.04 1021.47 1021.10 1020.55 1019.73 1019.24 1018.88 1018.59 1017.92 1017.48 1017.20 1016.46 1015.98 1015.14 1014.71 1014.22 1014.05 1013.79 1013.62 1013.28 1012.50 1011.72 1011.46 1011.15 1010.77 1010.34 1010.43 1010.25 1010.03
1026.80 1026.73 1027.13 1027.28 1027.27 1026.62 1026.30 1025.66 1025.12 1024.76 1024.15 1023.60 1023.12 1022.65 1022.23 1021.75 1021.31 1021.13 1020.25 1019.46 1019.10 1018.62 1018.33 1018.20 1017.68 1016.98 1016.36 1015.47 1015.05 1014.50 1014.26 1013.88 1013.64 1013.31 1013.02 1012.68 1012.00 1011.65 1011.67 1011.41 1011.24 1011.08 1010.92
1026.83 1027.09 1027.01 1026.97 1027.17 1026.74 1026.79 1026.00 1025.37 1024.94 1024.41 1023.91 1023.42 1022.88 1022.46 1021.97 1021.52 1021.35 1020.60 1019.75 1019.24 1018.93 1018.42 1018.24 1018.09 1017.55 1016.90 1016.15 1015.48 1014.93 1014.46 1014.12 1013.86 1013.74 1013.35 1012.98 1012.57 1012.10 1012.01 1011.99 1011.85 1011.68 1011.40
1026.80 1027.07 1027.21 1027.75 1027.70 1027.52 1027.35 1026.46 1025.80 1025.21 1024.67 1024.18 1023.68 1023.10 1022.64 1022.22 1021.83 1021.38 1020.83 1020.10 1019.50 1019.12 1018.78 1018.34 1018.08 1017.80 1017.26 1016.62 1016.14 1015.65 1015.21 1014.60 1014.13 1013.88 1013.74 1013.48 1012.96 1012.40 1012.05 1012.35 1012.23 1012.00 1011.77
1026.84 1027.23 1027.56 1027.72 1027.32 1027.38 1026.95 1026.30 1026.04 1025.45 1024.94 1024.31 1023.78 1023.24 1022.69 1022.39 1022.08 1021.62 1021.07 1020.36 1019.83 1019.36 1018.87 1018.47 1018.09 1017.87 1017.57 1017.10 1016.43 1016.06 1015.69 1015.27 1014.64 1014.32 1014.06 1013.93 1013.53 1013.09 1012.60 1012.28 1012.06 1011.84 1011.58
1026.78 1027.10 1027.39 1027.39 1027.13 1027.23 1027.23 1026.72 1026.41 1025.71 1024.96 1024.32 1023.79 1023.29 1022.84 1022.51 1022.17 1021.80 1021.29 1020.74 1020.21 1019.66 1019.15 1018.62 1018.35 1017.86 1017.65 1017.31 1016.74 1016.21 1015.91 1015.64 1015.18 1014.86 1014.55 1014.23 1013.71 1013.25 1012.86 1012.56 1012.13 1011.60 1011.13
1026.79 1027.04 1027.39 1027.21 1026.87 1027.18 1027.09 1027.09 1026.91 1026.08 1025.01 1024.25 1023.75 1023.28 1022.85 1022.48 1022.20 1021.91 1021.51 1021.07 1020.77 1020.29 1019.67 1019.18 1018.55 1018.31 1017.71 1017.48 1017.06 1016.56 1016.08 1015.66 1015.32 1015.16 1014.74 1014.33 1013.79 1013.31 1012.94 1012.51 1012.08 1011.63 1011.31
1026.77 1027.08 1027.23 1026.99 1027.00 1026.94 1026.94 1026.99 1026.65 1025.93 1024.75 1024.17 1023.77 1023.37 1022.94 1022.63 1022.33 1022.17 1021.95 1021.57 1021.52 1021.16 1020.61 1019.99 1019.32 1018.84 1018.29 1017.98 1017.64 1017.04 1016.56 1016.09 1015.62 1015.20 1014.63 1014.18 1013.77 1013.40 1013.19 1012.86 1012.53 1012.25 1011.91
1026.71 1027.01 1027.09 1027.16 1027.16 1026.83 1026.88 1026.71 1026.68 1026.06 1024.80 1024.16 1023.69 1023.43 1023.11 1022.79 1022.47 1022.21 1022.44 1022.26 1022.13 1022.07 1021.53 1020.93 1020.31 1019.56 1019.12 1018.88 1018.45 1017.68 1017.23 1016.64 1016.14 1015.12 1014.51 1014.25 1013.93 1013.66 1013.33 1012.99 1012.72 1012.49 1012.19
1026.57 1026.84 1026.99 1027.26 1027.02 1026.89 1026.68 1026.82 1026.67 1026.09 1024.98 1024.31 1023.82 1023.61 1023.36 1023.12 1022.89 1022.54 1022.18 1022.29 1022.03 1021.88 1021.63 1021.19 1020.76 1020.27 1019.91 1019.35 1018.73 1017.96 1017.39 1016.72 1015.96 1015.26 1014.89 1014.58 1014.30 1013.98 1013.57 1013.20 1012.85 1012.69 1012.40
Wind_Speed
14 14 14 15 14 15 14 16 16 17 13 11 12 12 12 11 10 10 13 14 14 15 13 9 10 8 7 8 8 7 8 6 6 6 9 10 12 12 8 8 8 9 9
15 14 15 15 14 15 15 15 16 16 13 11 11 10 10 10 11 11 13 15 14 12 12 12 10 11 7 8 7 8 6 6 5 4 5 6 8 9 10 8 9 12 8
16 15 15 15 14 15 15 15 16 16 14 15 11 11 11 11 9 10 10 12 14 14 10 11 11 11 10 7 7 7 7 6 4 8 4 4 5 5 7 11 8 10 8
13 13 15 15 14 14 14 15 15 16 14 15 13 15 10 12 10 9 10 11 13 14 14 10 11 12 9 9 8 7 7 7 6 4 7 10 9 5 4 5 8 9 10
13 13 14 14 14 13 13 13 15 14 15 15 13 10 11 10 10 9 14 14 12 13 14 13 11 11 9 10 8 8 8 6 4 4 5 5 6 10 7 7 3 5 8
13 12 13 13 13 12 12 13 15 15 15 15 15 15 14 13 11 11 10 11 9 10 12 13 12 11 11 10 8 5 4 3 5 5 4 5 4 5 6 7 9 7 5
12 12 13 13 13 13 13 13 15 15 15 16 16 15 16 15 13 9 10 14 11 9 11 13 12 10 10 12 10 5 2 4 4 5 4 5 5 5 5 6 7 8 6
11 11 12 11 12 13 14 14 15 15 16 16 16 15 15 10 11 12 9 9 10 11 13 12 12 12 12 10 8 5 3 3 3 7 6 4 5 5 5 5 5 7 6
11 11 11 11 12 13 13 14 14 15 15 16 14 15 15 18 16 17 10 8 12 12 13 14 13 11 10 10 8 6 5 3 3 5 5 5 2 2 6 6 8 6 5
11 10 10 11 11 11 12 13 13 14 15 15 14 13 16 14 14 15 15 12 13 15 13 17 14 10 6 7 6 5 4 3 2 2 1 2 3 4 4 6 7 6 6
10 10 10 10 11 11 11 12 13 14 14 14 15 15 14 12 15 14 14 14 13 15 14 16 17 15 8 6 7 8 7 4 2 3 2 4 4 4 4 4 5 6 6
9 9 9 10 12 12 11 12 13 13 14 14 14 15 14 13 13 15 16 15 13 13 15 15 17 14 14 14 13 13 8 8 8 7 6 5 3 6 5 4 7 5 7
9 9 9 11 13 12 12 12 13 13 14 14 14 14 14 13 14 15 17 16 16 12 13 15 16 14 13 13 12 12 12 12 11 9 9 9 3 6 5 5 6 5 6
8 8 9 10 12 11 12 12 13 13 13 14 14 13 14 14 14 13 15 16 15 15 14 14 14 14 12 12 13 11 11 10 8 9 9 10 9 8 4 6 8 6 6
7 8 9 10 13 11 12 12 13 13 13 13 13 13 13 13 14 13 12 15 15 14 14 13 14 14 12 10 13 12 13 13 12 10 10 9 11 14 8 5 3 6 7
7 7 9 9 12 12 12 12 12 12 13 13 13 12 13 12 13 13 13 13 14 15 14 13 13 14 10 21 18 12 9 10 13 12 12 9 12 11 10 2 3 7 6
6 6 8 8 10 11 11 12 12 12 12 12 13 13 13 13 12 14 13 12 12 13 15 14 13 13 14 23 20 14 7 8 8 13 11 9 9 11 10 6 9 10 12
5 4 6 7 9 10 10 11 11 11 12 12 12 12 12 12 12 13 14 12 11 11 11 13 13 13 12 24 21 17 9 8 11 10 11 10 11 10 8 7 7 7 7
3 4 5 6 7 9 10 11 10 11 11 12 13 13 12 11 12 11 12 12 11 10 10 9 12 12 13 24 24 16 10 9 9 10 11 9 6 14 13 8 7 6 7
2 4 5 6 7 9 10 10 11 10 12 13 12 12 11 11 11 10 11 10 10 10 9 10 10 14 12 19 22 18 8 9 8 8 9 17 15 18 13 5 4 5 4
1 3 3 4 6 6 8 8 9 10 11 11 11 11 11 10 10 10 9 10 10 10 9 9 8 9 12 14 19 19 10 8 7 7 7 7 16 15 16 12 5 3 3
1 0 2 4 4 5 7 9 8 10 10 10 10 10 10 8 8 9 9 10 10 10 10 10 9 7 8 16 18 19 16 14 8 8 7 8 14 13 11 9 11 10 6
1 1 2 4 3 5 5 8 10 11 10 9 9 10 9 9 9 9 9 8 10 9 9 8 8 8 8 9 20 20 19 16 8 7 9 12 13 14 11 13 14 11 5
2 2 2 3 4 4 4 5 8 10 9 8 8 8 8 9 8 7 7 7 8 8 9 9 9 8 8 9 10 9 10 15 10 12 7 10 11 11 9 8 8 6 6
2 3 2 3 3 5 5 5 7 9 8 7 6 7 6 8 7 6 3 6 6 7 8 8 9 9 9 11 16 13 9 9 10 10 5 5 6 7 7 6 5 5 5
3 4 4 3 4 5 4 6 7 8 8 7 6 5 6 6 6 6 4 5 2 2 7 11 9 9 13 18 18 17 14 15 15 6 6 7 7 7 7 7 6 6 8
Wind_Direction
356 0 2 357 358 2 1 357 355 356 351 349 346 338 337 336 326 326 331 335 318 328 330 311 308 297 285 288 279 264 250 253 252 270 285 278 269 256 235 235 248 249 219
356 1 360 360 359 0 358 355 356 353 353 350 344 333 328 337 335 342 333 321 321 324 323 320 315 314 292 274 277 271 252 239 256 258 284 276 255 232 244 235 234 237 240
352 356 357 359 360 1 357 353 353 352 351 356 339 341 336 336 333 342 326 324 330 323 318 320 320 311 302 291 286 267 255 250 232 249 248 275 248 304 206 220 226 238 241
355 355 357 357 357 2 354 351 353 358 349 352 343 348 339 331 333 334 320 325 323 323 328 328 321 315 312 291 293 258 258 236 223 246 252 256 279 305 310 211 208 223 233
357 357 360 352 359 357 352 351 354 358 344 347 349 345 333 331 333 333 325 335 325 322 325 331 330 324 317 302 298 292 262 229 207 216 254 252 277 272 277 288 236 224 221
357 358 356 354 353 354 352 353 355 355 347 344 349 346 343 339 341 337 332 322 324 322 325 328 327 322 322 315 307 306 297 189 201 231 223 261 256 264 264 275 286 285 285
356 355 353 355 342 351 352 354 355 352 348 350 350 349 345 342 343 341 330 323 324 327 327 330 324 322 318 317 310 304 254 226 214 234 231 250 271 269 285 291 272 275 280
357 354 355 356 342 349 351 353 353 349 350 352 350 348 349 348 345 346 336 323 323 328 333 324 321 318 319 317 311 307 263 230 216 244 214 255 254 274 281 277 297 277 272
354 352 352 360 347 354 351 349 349 349 351 352 349 350 357 359 340 335 350 333 329 329 343 332 324 313 314 318 310 304 324 283 217 230 229 220 264 248 277 269 279 281 269
354 352 350 355 352 355 351 347 347 348 349 349 347 351 9 350 329 322 352 357 340 336 358 340 336 321 305 317 310 316 310 301 153 252 295 240 225 229 243 273 257 283 278
351 349 348 347 351 354 350 346 349 350 350 348 346 354 9 349 334 337 353 357 346 342 4 354 355 6 45 31 353 333 8 359 287 270 200 228 247 223 223 244 278 286 282
352 348 344 4 343 353 351 351 348 351 350 346 348 4 355 353 346 352 353 358 359 355 3 10 7 22 27 19 12 357 357 355 8 4 338 299 212 230 224 224 236 237 252
355 350 349 10 335 353 348 350 348 352 349 346 352 9 344 349 1 2 353 358 0 7 14 8 16 3 33 28 21 19 18 8 0 347 339 322 280 239 225 235 241 231 253
354 349 356 2 332 344 348 349 349 352 347 347 355 8 347 352 4 9 358 345 6 10 20 14 13 11 19 31 28 21 18 19 17 0 342 318 336 305 281 223 223 225 236
358 354 352 357 331 351 352 347 348 347 349 349 355 3 350 359 358 9 10 347 7 14 28 11 12 11 19 21 29 24 21 13 2 359 15 349 315 332 308 312 287 244 218
353 353 354 355 329 350 345 345 346 347 345 351 354 357 353 3 358 358 7 11 11 4 21 21 10 22 9 15 13 23 12 18 14 359 342 24 5 333 354 122 294 256 264
350 343 356 351 326 346 344 344 341 348 344 352 355 356 354 0 7 351 7 10 18 11 8 22 11 5 3 26 15 13 28 22 25 6 357 2 22 11 360 27 37 39 50
342 337 358 340 326 348 345 339 341 347 346 355 354 354 357 358 11 1 352 5 11 6 23 12 21 2 7 14 20 10 20 14 17 24 14 7 11 38 36 24 25 18 13
329 344 339 343 343 343 354 335 341 351 350 354 353 351 356 357 1 16 342 358 4 6 8 23 16 3 10 13 15 11 8 12 26 18 18 23 15 44 45 39 35 22 12
321 342 352 348 332 2 329 344 343 351 351 349 347 349 349 358 0 8 344 1 0 12 6 10 17 11 2 12 15 13 9 0 9 27 19 13 16 18 43 55 34 12 335
358 335 8 330 333 357 324 337 339 353 339 341 343 349 353 357 2 354 353 356 4 359 10 8 10 18 4 356 12 13 9 350 1 7 6 18 7 8 12 20 12 353 326
134 244 318 325 327 357 334 346 339 335 336 340 346 350 357 2 2 359 353 360 356 1 5 2 7 1 7 5 360 6 9 4 359 2 4 356 359 1 10 10 357 345 330
131 186 291 296 330 16 358 342 338 324 332 342 348 350 1 359 7 7 359 5 4 357 358 360 0 354 358 7 359 356 359 359 358 354 346 353 356 2 360 359 359 -0 356
185 202 240 275 323 351 353 341 329 320 326 342 348 350 355 355 5 16 7 11 10 2 358 355 350 357 356 3 351 349 349 353 357 342 342 353 357 6 4 2 0 359 353
165 203 230 254 294 315 332 336 339 318 333 336 345 3 351 355 358 9 27 17 33 5 353 356 344 349 355 355 350 349 350 348 340 317 338 5 356 356 356 351 353 353 352
163 209 227 251 272 300 319 333 337 321 330 337 346 1 344 354 354 351 357 159 161 360 6 3 7 348 358 356 358 356 350 356 352 355 360 3 356 356 349 344 345 349 350